Other Public Products
Issued by NWS Grand Forks, ND

Home | Current Version | Previous Version | Graphics & Text | Print | Product List | Glossary On
Versions: 1 2 3 4 5 6 7 8 9 10 11 12 13 14 15 16 17 18 19 20 21 22 23 24 25 26 27 28 29 30 31 32 33 34 35 36 37 38 39 40 41 42 43 44 45 46 47 48 49 50
000
FPUS83 KFGF 280410
OPUFGF
PRAIRIE TO PINES WEATHER ROUNDUP
NATIONAL WEATHER SERVICE EASTERN NORTH DAKOTA/GRAND FORKS ND
1000 PM CST FRI FEB 27 2015

 **SATELLITE DATA USED TO AUGMENT SKY COVER AT AUTOMATED STATIONS**
 *****  WEATHER ACROSS EASTERN NORTH DAKOTA  *****

CITY           SKY/WX    TMP DP  RH WIND       PRES   REMARKS
GRAND FORKS    FAIR       3  -4  72 S12       30.34S WCI -13
GRAND FORKS AF FAIR       7  -1  68 SW12      30.33S WCI  -8
GRAND CITY NWS   N/A      7 N/A N/A S13         N/A  WCI  -9
BUXTON         NOT AVBL
DEVILS LAKE    PTCLDY     9   0  66 S14       30.24S WCI  -8
FARGO          CLEAR      9  -2  61 S12       30.38S WCI  -6
WAHPETON ARPT  CLEAR      7  -2  66 S12       30.40F WCI  -9
$$

 *****  WEATHER ACROSS CENTRAL AND WESTERN NORTH DAKOTA  *****

CITY           SKY/WX    TMP DP  RH WIND       PRES   REMARKS
JAMESTOWN      PTCLDY     2  -3  80 S13       30.26F WCI -15
BISMARCK       PTCLDY    11   2  67 S12       30.20S WCI  -3
MINOT          MOCLDY    10   2  69 SE6       30.12S WCI   0
MINOT AFB      MOCLDY     5   0  80 S12       30.12S WCI -11
GARRISON         N/A      8   1  73 SE10      30.12F WCI  -6
WILLISTON      CLOUDY    19   9  65 NW3       30.05S
DICKINSON      PTCLDY    13   5  70 SE12      30.01F WCI  -1
HETTINGER      PTCLDY    15   4  61 SE9       30.04S WCI   3
$$

 *****  OTHER OBSERVATIONS NORTHEAST NORTH DAKOTA  *****

CITY           SKY/WX    TMP DP  RH WIND       PRES   REMARKS
WALHALLA         N/A      7   0  72 S8        30.27F WCI  -6
LANGDON        NOT AVBL
CAVALIER       FAIR       5   0  78 S9        30.30R WCI  -9
GRAFTON        NOT AVBL
CANDO          FAIR       5   0  78 S15       30.20F WCI -13
FORT TOTTEN    NOT AVBL
ROLLA          FAIR       0  -2  92 SW8       30.17S WCI -15
RUGBY          FAIR       5   0  78 S12G20    30.17F WCI -11
 ***** THE ABOVE OBSERVATIONS ARE NON NWS ARE NOT QUALITY
        CONTROLLED AND MAY MIS-REPORT RAIN FOR SNOW...
$$

 *****  OTHER OBSERVATIONS SOUTHEAST NORTH DAKOTA *****

CITY           SKY/WX    TMP DP  RH WIND       PRES   REMARKS
COOPERSTOWN    NOT AVBL
VALLEY CITY      N/A      0  -2  92 S9        30.30F WCI -16
OAKES            N/A      1  -2  85 S12       30.31F WCI -15
GWINNER        CLEAR      1  -6  71 S8        30.34F WCI -12
SHEYENNE NWR     N/A      3  -6  65 S6        29.95S WCI  -8
BUFFALO        NOT AVBL
WYNDMERE         N/A      5  -4  66 S7          N/A  WCI  -7
 ***** THE ABOVE OBSERVATIONS ARE NON NWS ARE NOT QUALITY
       CONTROLLED AND MAY MIS-REPORT RAIN FOR SNOW...
$$

  *****  WEATHER ACROSS NORTHERN MINNESOTA  *****

CITY           SKY/WX    TMP DP  RH WIND       PRES   REMARKS
FLAG ISLAND    MOCLDY     0  -6  78 S8        30.29S WCI -15
WARROAD        PTCLDY     7   0  72 SW10      30.30S WCI  -8
ROSEAU         MOCLDY     9   0  66 SW9       30.31R WCI  -5
HALLOCK        NOT AVBL
THF RVR FALLS  PTCLDY     1  -2  85 S9        30.33S WCI -14
HALSTAD        NOT AVBL
FOSSTON        PTCLDY     0  -6  78 S13       30.35S WCI -18
BAUDETTE       PTCLDY     2  -7  66 SW6       30.31R WCI  -9
WASKISH        PTCLDY     7  -2  66 S3        30.33S
CROOKSTON      PTCLDY     7   0  72 S12       30.36F WCI  -9
$$
  *****  WEATHER ACROSS CENTRAL AND WEST MINNESOTA  *****

CITY           SKY/WX    TMP DP  RH WIND       PRES   REMARKS
BEMIDJI        CLEAR      5  -6  60 S6        30.34S WCI  -6
PARK RAPIDS    CLEAR      1  -7  68 S7        30.36S WCI -12
WADENA         CLEAR     -2  -8  78 S3        30.40R
DETROIT LAKES  FAIR       5   0  78 S7        30.37S WCI  -7
MOORHEAD       CLEAR      7   0  72 S9        30.39F WCI  -7
FERGUS FALLS   CLEAR      5  -4  66 S9        30.45S WCI  -9
ELBOW LAKE     FAIR       1  -5  75 S9        30.40F WCI -14
MORRIS MN      FAIR       0  -6  78 S7        30.42S WCI -13
STAPLES        CLEAR     -2  -9  71 S5        30.41R WCI -12
WHEATON        CLEAR      5  -4  66 SE12      30.43S WCI -11
$$
  *****  WEATHER ELSEWHERE ACROSS MINNESOTA  *****

CITY           SKY/WX    TMP DP  RH WIND       PRES   REMARKS
DULUTH         CLEAR      9  -6  50 SW13      30.38R WCI  -7
INTRNTL FALLS  CLEAR      0 -11  59 SW6       30.33R WCI -12
ELY            NOT AVBL
CLOQUET        CLEAR      7  -9  47 SW6       30.40S WCI  -3
BRAINERD       CLEAR      4  -7  60 SW7       30.42R WCI  -8
HIBBING        CLEAR      1 -13  51 SW3       30.36R
ALEXANDRIA     CLEAR      5  -2  72 S9        30.41S WCI  -9
SAINT CLOUD    FAIR       4  -4  69 S6        30.47S WCI  -7
MINNEAPOLIS    CLEAR      7  -3  64 S6        30.54R WCI  -3
$$

  *****  WEATHER ACROSS SOUTH DAKOTA  *****

CITY           SKY/WX    TMP DP  RH WIND       PRES   REMARKS
SIOUX FALLS    CLEAR      8  -1  66 S12       30.43S WCI  -7
BROOKINGS      NOT AVBL
WATERTOWN      CLEAR      3  -3  76 S10       30.35S WCI -12
HURON          CLEAR      9   2  73 SE15      30.35S WCI  -8
SISSETON         N/A      3  -4  72 S10       30.38F WCI -12
ABERDEEN       PTCLDY     9   1  70 S16       30.33S WCI  -8
MITCHELL       CLEAR     12   4  70 S15       30.39S WCI  -4
PIERRE         CLEAR     13  -2  51 E10       30.21R WCI   0
MOBRIDGE       CLEAR     11   0  61 SE10      30.17S WCI  -3
RAPID CITY     PTCLDY    16   9  74 S12       30.02R WCI   3
$$

  *****  SOME WEATHER IN NEARBY STATES *****

CITY           SKY/WX    TMP DP  RH WIND       PRES   REMARKS
GLASGOW MT     PTCLDY    11   1  64 N15       30.08R WCI  -5
GREAT FALLS MT CLOUDY    16  10  77 N7        30.08R WCI   6
CHEYENNE WY    CLOUDY    10   5  80 S12       29.85S HAZE    WCI  -5
SCOTTSBLUFF NE CLOUDY    17   8  67 SE16      30.01S WCI   2
OMAHA NE       CLEAR     11   3  70 SE9       30.54S WCI  -2
DES MOINES IA  CLEAR      8  -2  63 SE8       30.60R WCI  -4
DAVENPORT IA   MOCLDY    -3 -10  72 CALM      30.66S
CHICAGO IL     CLEAR      4  -6  63 SW3       30.66R
EAU CLAIRE WI  CLEAR      4  -5  66 SW3       30.54R
LA CROSSE WI   CLEAR      3  -7  63 S6        30.62R WCI  -8
$$

  *****  SOME NATIONAL WEATHER *****

CITY           SKY/WX    TMP DP  RH WIND       PRES   REMARKS
LA GUARDIA NY  CLEAR     22   1  40 NW12      30.60R WCI  10
RALEIGH NC     PTCLDY    33  16  49 NE8       30.55R
ATLANTA GA     MOCLDY    34  20  56 N7        30.43S
NEW ORLEANS LA MOCLDY    46  34  62 NE12      30.40S
OKLAHOMA CITY  CLOUDY    19  12  74 E7        30.46R WCI  10
ALBUQUERQUE NM LGT SNOW  23  21  92 N8        29.90S FOG     WCI  14
SALT LAKE CITY PTCLDY    34  26  72 E6        29.70S
LOS ANGELES CA MOCLDY    59  50  72 W16       29.76R
BOISE ID       CLOUDY    42  32  67 SE8       29.64S
SEATTLE WA     CLOUDY    49  40  71 NE8       29.84R
$$

*** WEATHER ACROSS MANITOBA...SASKATCHEWAN AND ONTARIO ***
                ***ONTARIO***

CITY           SKY/WX    TMP DP  RH WIND       PRES   REMARKS
GERALDTON      PTCLDY     9  -8  47 SW9       30.20R WCI  -5
THUNDER BAY    PTCLDY     1  -9  60 NW7       30.35S WCI -11
SIOUX LOOKOUT  PTCLDY     7  -8  51 SW5       30.22R WCI  -2
TORONTO        CLEAR      3  -6  66 SW8       30.63R WCI -10
BIG TROUT LK   CLOUDY     9   3  78 W6        30.02R WCI  -1
PICKLE LAKE    NOT AVBL
DRYDEN         CLEAR      5  -6  61 SW12      30.23R WCI -11
KENORA         PTCLDY     5  -2  72 SW12      30.24S WCI -11
$$
                *** MANITOBA***

CITY           SKY/WX    TMP DP  RH WIND       PRES   REMARKS
BRANDON        CLOUDY    -6 -11  77 N2        30.19F
DAUPHIN        CLEAR      7  -2  66 SW13G20   30.17R WCI  -9
ISLAND LAKE    MOCLDY     7  -2  66 SW8       30.07S WCI  -6
PILOT MOUND      N/A      1  -4  78 S15         N/A  WCI -18
THE PAS        CLOUDY    10   0  61 W7        30.12F WCI   0
THOMPSON       FLURRIES   9   1  72 W6        30.03S WCI  -1
WINNIPEG       PTCLDY     7  -2  66 SW14      30.28R WCI -10
LYNN LAKE      FLURRIES   9   3  78 W6        30.00F WCI  -1
CHURCHILL      CRYSTALS  -9 -15  77 SW7       29.92F WCI -24
GILLAM         FLURRIES   9   1  72 W9        29.99F WCI  -5
$$
                ***SASKATCHEWAN***

CITY           SKY/WX    TMP DP  RH WIND       PRES   REMARKS
ESTEVAN        CLOUDY     7   1  78 E8        30.08F WCI  -6
KINDERSLEY     FLURRIES   5   0  78 N8        30.15S WCI  -8
LLOYDMINSTER   PTCLDY    -4  -8  84 W10       30.14S WCI -21
PRINCE ALBERT  CLEAR      1  -4  78 W5        30.16S WCI  -8
REGINA         PTCLDY    -8 -11  84 W7        30.12R WCI -22


USA.gov is the U.S. government's official web portal to all federal, state and local government web resources and services.